Time,TemperatureF,DewpointF,PressureIn,WindDirection,WindDirectionDegrees,WindSpeedMPH,WindSpeedGustMPH,Humidity,HourlyPrecipIn,Conditions,Clouds,dailyrainin,SolarRadiationWatts/m^2,SoftwareType,DateUTC
2013-02-19 00:13:00,26.5,21.0,29.66,SW,222,4.0,-999.0,79,-99.99,,,0.00,0,weatherlink.com 1.10,2013-02-19 08:13:00,
2013-02-19 00:28:00,27.2,21.0,29.66,SW,225,4.0,-999.0,78,-99.99,,,0.00,0,weatherlink.com 1.10,2013-02-19 08:28:00,
2013-02-19 00:43:00,28.3,22.0,29.65,SW,225,4.0,-999.0,76,-99.99,,,0.00,0,weatherlink.com 1.10,2013-02-19 08:43:00,
2013-02-19 00:58:00,28.3,21.0,29.64,SW,225,4.0,-999.0,74,-99.99,,,0.00,0,weatherlink.com 1.10,2013-02-19 08:58:00,
2013-02-19 01:14:00,27.3,20.0,29.64,SW,228,5.0,-999.0,74,-99.99,,,0.00,0,weatherlink.com 1.10,2013-02-19 09:14:00,
2013-02-19 01:28:00,26.9,20.0,29.64,SW,232,5.0,-999.0,75,-99.99,,,0.00,0,weatherlink.com 1.10,2013-02-19 09:28:00,
2013-02-19 01:43:00,27.1,20.0,29.64,SW,234,3.0,-999.0,74,-99.99,,,0.00,0,weatherlink.com 1.10,2013-02-19 09:43:00,
2013-02-19 01:59:00,28.0,20.0,29.64,WSW,254,4.0,-999.0,73,-99.99,,,0.00,0,weatherlink.com 1.10,2013-02-19 09:59:00,
2013-02-19 02:13:00,27.5,20.0,29.63,West,265,2.0,-999.0,73,-99.99,,,0.00,0,weatherlink.com 1.10,2013-02-19 10:13:00,
2013-02-19 02:29:00,26.9,20.0,29.62,West,259,3.0,-999.0,74,-99.99,,,0.00,0,weatherlink.com 1.10,2013-02-19 10:29:00,
2013-02-19 02:43:00,26.7,19.0,29.62,SW,235,5.0,-999.0,74,-99.99,,,0.00,0,weatherlink.com 1.10,2013-02-19 10:43:00,
2013-02-19 02:58:00,27.2,20.0,29.62,SW,233,3.0,-999.0,73,-99.99,,,0.00,0,weatherlink.com 1.10,2013-02-19 10:58:00,
2013-02-19 03:13:00,28.1,19.0,29.62,SSW,210,3.0,-999.0,70,-99.99,,,0.00,0,weatherlink.com 1.10,2013-02-19 11:13:00,
2013-02-19 03:28:00,27.6,19.0,29.61,SSW,199,3.0,-999.0,70,-99.99,,,0.00,0,weatherlink.com 1.10,2013-02-19 11:28:00,
2013-02-19 03:43:00,28.1,19.0,29.61,SSW,199,0.0,-999.0,69,-99.99,,,0.00,0,weatherlink.com 1.10,2013-02-19 11:43:00,
2013-02-19 03:59:00,28.6,20.0,29.61,SSW,199,1.0,-999.0,69,-99.99,,,0.00,0,weatherlink.com 1.10,2013-02-19 11:59:00,
2013-02-19 04:14:00,27.6,19.0,29.61,SSW,199,0.0,-999.0,71,-99.99,,,0.00,0,weatherlink.com 1.10,2013-02-19 12:14:00,
2013-02-19 04:29:00,27.7,20.0,29.61,South,184,0.0,-999.0,72,-99.99,,,0.00,0,weatherlink.com 1.10,2013-02-19 12:29:00,
2013-02-19 04:43:00,27.3,19.0,29.61,South,184,2.0,-999.0,72,-99.99,,,0.00,0,weatherlink.com 1.10,2013-02-19 12:43:00,
2013-02-19 04:59:00,27.0,19.0,29.60,South,184,1.0,-999.0,73,-99.99,,,0.00,0,weatherlink.com 1.10,2013-02-19 12:59:00,
2013-02-19 05:13:00,26.9,20.0,29.61,South,184,0.0,-999.0,74,-99.99,,,0.00,0,weatherlink.com 1.10,2013-02-19 13:13:00,
2013-02-19 05:28:00,26.5,19.0,29.61,South,185,5.0,-999.0,72,-99.99,,,0.00,0,weatherlink.com 1.10,2013-02-19 13:28:00,
2013-02-19 05:43:00,25.2,18.0,29.62,South,190,4.0,-999.0,75,-99.99,,,0.00,0,weatherlink.com 1.10,2013-02-19 13:43:00,
2013-02-19 06:14:00,27.4,20.0,29.61,South,190,2.0,-999.0,73,-99.99,,,0.00,0,weatherlink.com 1.10,2013-02-19 14:14:00,
2013-02-19 06:28:00,26.9,19.0,29.61,South,190,4.0,-999.0,73,-99.99,,,0.00,0,weatherlink.com 1.10,2013-02-19 14:28:00,
2013-02-19 06:44:00,25.1,19.0,29.61,South,190,3.0,-999.0,76,-99.99,,,0.00,0,weatherlink.com 1.10,2013-02-19 14:44:00,
2013-02-19 06:58:00,25.3,19.0,29.61,South,190,4.0,-999.0,77,-99.99,,,0.00,9,weatherlink.com 1.10,2013-02-19 14:58:00,
2013-02-19 07:13:00,25.0,19.0,29.62,WSW,238,5.0,-999.0,79,-99.99,,,0.00,23,weatherlink.com 1.10,2013-02-19 15:13:00,
2013-02-19 07:28:00,25.4,20.0,29.62,WNW,292,4.0,-999.0,80,-99.99,,,0.00,37,weatherlink.com 1.10,2013-02-19 15:28:00,
2013-02-19 07:43:00,25.4,20.0,29.63,West,261,2.0,-999.0,80,-99.99,,,0.00,58,weatherlink.com 1.10,2013-02-19 15:43:00,
2013-02-19 07:58:00,25.7,20.0,29.63,West,261,2.0,-999.0,79,-99.99,,,0.00,63,weatherlink.com 1.10,2013-02-19 15:58:00,
2013-02-19 08:13:00,25.9,20.0,29.64,West,261,3.0,-999.0,79,-99.99,,,0.00,90,weatherlink.com 1.10,2013-02-19 16:13:00,
2013-02-19 08:28:00,26.9,21.0,29.64,WNW,291,5.0,-999.0,79,-99.99,,,0.00,146,weatherlink.com 1.10,2013-02-19 16:28:00,
2013-02-19 08:44:00,27.5,22.0,29.65,NW,311,4.0,-999.0,78,-99.99,,,0.00,109,weatherlink.com 1.10,2013-02-19 16:44:00,
2013-02-19 08:58:00,27.5,22.0,29.65,NW,321,5.0,-999.0,78,-99.99,,,0.00,179,weatherlink.com 1.10,2013-02-19 16:58:00,
2013-02-19 09:13:00,28.0,22.0,29.65,NNW,340,9.0,-999.0,79,-99.99,,,0.00,283,weatherlink.com 1.10,2013-02-19 17:13:00,
2013-02-19 09:28:00,28.5,22.0,29.66,NNW,338,2.0,-999.0,78,-99.99,,,0.00,278,weatherlink.com 1.10,2013-02-19 17:28:00,
2013-02-19 09:44:00,29.4,23.0,29.66,North,350,2.0,-999.0,76,-99.99,,,0.00,269,weatherlink.com 1.10,2013-02-19 17:44:00,
2013-02-19 09:58:00,29.8,22.0,29.66,NW,304,5.0,-999.0,74,-99.99,,,0.00,415,weatherlink.com 1.10,2013-02-19 17:58:00,
2013-02-19 10:13:00,31.0,23.0,29.66,NW,307,5.0,-999.0,71,-99.99,,,0.00,508,weatherlink.com 1.10,2013-02-19 18:13:00,
2013-02-19 10:28:00,31.9,23.0,29.66,NW,323,7.0,-999.0,69,-99.99,,,0.00,508,weatherlink.com 1.10,2013-02-19 18:28:00,
2013-02-19 10:44:00,33.2,24.0,29.66,NNE,24,6.0,-999.0,68,-99.99,,,0.00,566,weatherlink.com 1.10,2013-02-19 18:44:00,
2013-02-19 10:58:00,33.8,23.0,29.66,NNE,18,5.0,-999.0,66,-99.99,,,0.00,580,weatherlink.com 1.10,2013-02-19 18:58:00,
2013-02-19 11:13:00,34.4,23.0,29.66,NNE,33,5.0,-999.0,64,-99.99,,,0.00,469,weatherlink.com 1.10,2013-02-19 19:13:00,
2013-02-19 11:28:00,35.0,23.0,29.66,NE,55,0.0,-999.0,62,-99.99,,,0.00,591,weatherlink.com 1.10,2013-02-19 19:28:00,
2013-02-19 11:43:00,36.5,23.0,29.66,NNE,23,4.0,-999.0,58,-99.99,,,0.00,628,weatherlink.com 1.10,2013-02-19 19:43:00,
2013-02-19 11:58:00,36.5,23.0,29.66,ENE,57,2.0,-999.0,58,-99.99,,,0.00,564,weatherlink.com 1.10,2013-02-19 19:58:00,
2013-02-19 12:13:00,37.5,23.0,29.66,NE,34,3.0,-999.0,56,-99.99,,,0.00,671,weatherlink.com 1.10,2013-02-19 20:13:00,
2013-02-19 12:29:00,37.4,22.0,29.66,East,83,0.0,-999.0,54,-99.99,,,0.00,269,weatherlink.com 1.10,2013-02-19 20:29:00,
2013-02-19 12:43:00,37.1,22.0,29.66,ENE,63,1.0,-999.0,55,-99.99,,,0.00,193,weatherlink.com 1.10,2013-02-19 20:43:00,
2013-02-19 12:59:00,37.0,22.0,29.67,NNE,33,5.0,-999.0,54,-99.99,,,0.00,211,weatherlink.com 1.10,2013-02-19 20:59:00,
2013-02-19 13:13:00,37.3,22.0,29.68,NE,39,7.0,-999.0,55,-99.99,,,0.00,220,weatherlink.com 1.10,2013-02-19 21:13:00,
2013-02-19 13:28:00,37.3,22.0,29.68,NNE,28,6.0,-999.0,55,-99.99,,,0.00,262,weatherlink.com 1.10,2013-02-19 21:28:00,
2013-02-19 13:44:00,37.3,22.0,29.68,NNE,28,4.0,-999.0,54,-99.99,,,0.00,287,weatherlink.com 1.10,2013-02-19 21:44:00,
2013-02-19 13:58:00,38.5,22.0,29.68,North,5,4.0,-999.0,51,-99.99,,,0.00,612,weatherlink.com 1.10,2013-02-19 21:58:00,
2013-02-19 14:13:00,40.2,21.0,29.68,NE,48,6.0,-999.0,47,-99.99,,,0.00,640,weatherlink.com 1.10,2013-02-19 22:13:00,
2013-02-19 14:28:00,38.0,23.0,29.68,ENE,57,3.0,-999.0,54,-99.99,,,0.00,114,weatherlink.com 1.10,2013-02-19 22:28:00,
2013-02-19 14:43:00,37.5,23.0,29.68,North,360,1.0,-999.0,55,-99.99,,,0.00,109,weatherlink.com 1.10,2013-02-19 22:43:00,
2013-02-19 14:58:00,38.3,23.0,29.69,North,355,1.0,-999.0,54,-99.99,,,0.00,496,weatherlink.com 1.10,2013-02-19 22:58:00,
2013-02-19 15:14:00,39.8,22.0,29.69,NNE,24,6.0,-999.0,49,-99.99,,,0.00,401,weatherlink.com 1.10,2013-02-19 23:14:00,
2013-02-19 15:28:00,39.6,22.0,29.70,NNE,19,5.0,-999.0,50,-99.99,,,0.00,380,weatherlink.com 1.10,2013-02-19 23:28:00,
2013-02-19 15:43:00,39.0,21.0,29.70,NE,40,5.0,-999.0,49,-99.99,,,0.00,62,weatherlink.com 1.10,2013-02-19 23:43:00,
2013-02-19 15:58:00,38.2,22.0,29.70,North,5,4.0,-999.0,52,-99.99,,,0.00,183,weatherlink.com 1.10,2013-02-19 23:58:00,
2013-02-19 16:13:00,38.6,21.0,29.71,NNE,13,4.0,-999.0,50,-99.99,,,0.00,130,weatherlink.com 1.10,2013-02-20 00:13:00,
2013-02-19 16:29:00,37.8,22.0,29.71,NNE,13,4.0,-999.0,53,-99.99,,,0.00,63,weatherlink.com 1.10,2013-02-20 00:29:00,
2013-02-19 16:43:00,36.5,22.0,29.72,NNE,26,3.0,-999.0,55,-99.99,,,0.00,51,weatherlink.com 1.10,2013-02-20 00:43:00,
2013-02-19 16:58:00,35.8,22.0,29.73,NNE,15,0.0,-999.0,57,-99.99,,,0.00,37,weatherlink.com 1.10,2013-02-20 00:58:00,
2013-02-19 17:14:00,35.3,22.0,29.73,NNE,13,0.0,-999.0,58,-99.99,,,0.00,21,weatherlink.com 1.10,2013-02-20 01:14:00,
2013-02-19 17:28:00,34.9,21.0,29.74,NNE,13,2.0,-999.0,58,-99.99,,,0.00,11,weatherlink.com 1.10,2013-02-20 01:28:00,
2013-02-19 17:43:00,34.5,22.0,29.75,NNE,13,1.0,-999.0,60,-99.99,,,0.00,0,weatherlink.com 1.10,2013-02-20 01:43:00,
2013-02-19 17:58:00,34.0,22.0,29.76,NNE,12,3.0,-999.0,61,-99.99,,,0.00,0,weatherlink.com 1.10,2013-02-20 01:58:00,
2013-02-19 18:13:00,34.0,22.0,29.77,North,11,1.0,-999.0,63,-99.99,,,0.00,0,weatherlink.com 1.10,2013-02-20 02:13:00,
2013-02-19 18:28:00,33.9,22.0,29.78,North,11,2.0,-999.0,63,-99.99,,,0.00,0,weatherlink.com 1.10,2013-02-20 02:28:00,
2013-02-19 18:43:00,33.6,23.0,29.78,North,5,1.0,-999.0,65,-99.99,,,0.00,0,weatherlink.com 1.10,2013-02-20 02:43:00,
2013-02-19 18:58:00,33.2,23.0,29.79,NNE,17,2.0,-999.0,67,-99.99,,,0.00,0,weatherlink.com 1.10,2013-02-20 02:58:00,
2013-02-19 19:13:00,32.6,23.0,29.80,NNE,17,2.0,-999.0,69,-99.99,,,0.00,0,weatherlink.com 1.10,2013-02-20 03:13:00,
2013-02-19 19:28:00,32.3,24.0,29.80,NNE,17,0.0,-999.0,70,-99.99,,,0.00,0,weatherlink.com 1.10,2013-02-20 03:28:00,
2013-02-19 19:43:00,32.2,24.0,29.81,NNE,17,2.0,-999.0,71,-99.99,,,0.00,0,weatherlink.com 1.10,2013-02-20 03:43:00,
2013-02-19 19:59:00,32.2,24.0,29.81,NNE,15,2.0,-999.0,71,-99.99,,,0.00,0,weatherlink.com 1.10,2013-02-20 03:59:00,
2013-02-19 20:13:00,32.1,24.0,29.81,North,360,3.0,-999.0,72,-99.99,,,0.00,0,weatherlink.com 1.10,2013-02-20 04:13:00,
2013-02-19 20:28:00,31.9,24.0,29.82,NW,320,4.0,-999.0,72,-99.99,,,0.00,0,weatherlink.com 1.10,2013-02-20 04:28:00,
2013-02-19 20:43:00,31.7,24.0,29.83,NW,309,4.0,-999.0,73,-99.99,,,0.00,0,weatherlink.com 1.10,2013-02-20 04:43:00,
2013-02-19 20:58:00,31.5,24.0,29.84,NW,309,4.0,-999.0,73,-99.99,,,0.00,0,weatherlink.com 1.10,2013-02-20 04:58:00,
2013-02-19 21:14:00,31.4,24.0,29.84,NW,307,2.0,-999.0,73,-99.99,,,0.00,0,weatherlink.com 1.10,2013-02-20 05:14:00,
2013-02-19 21:28:00,31.3,24.0,29.85,NW,307,3.0,-999.0,73,-99.99,,,0.00,0,weatherlink.com 1.10,2013-02-20 05:28:00,
2013-02-19 21:43:00,31.0,24.0,29.85,NW,307,1.0,-999.0,74,-99.99,,,0.00,0,weatherlink.com 1.10,2013-02-20 05:43:00,
2013-02-19 21:59:00,31.2,24.0,29.85,NW,306,4.0,-999.0,74,-99.99,,,0.00,0,weatherlink.com 1.10,2013-02-20 05:59:00,
2013-02-19 22:13:00,31.0,24.0,29.85,NW,306,5.0,-999.0,74,-99.99,,,0.00,0,weatherlink.com 1.10,2013-02-20 06:13:00,
2013-02-19 22:29:00,30.9,24.0,29.86,NW,305,5.0,-999.0,74,-99.99,,,0.00,0,weatherlink.com 1.10,2013-02-20 06:29:00,
2013-02-19 22:44:00,30.5,23.0,29.86,WNW,302,4.0,-999.0,75,-99.99,,,0.00,0,weatherlink.com 1.10,2013-02-20 06:44:00,
2013-02-19 22:58:00,30.5,23.0,29.87,WNW,300,4.0,-999.0,75,-99.99,,,0.00,0,weatherlink.com 1.10,2013-02-20 06:58:00,
2013-02-19 23:14:00,30.6,24.0,29.87,WNW,300,3.0,-999.0,75,-99.99,,,0.00,0,weatherlink.com 1.10,2013-02-20 07:14:00,
2013-02-19 23:29:00,31.1,24.0,29.87,WNW,300,3.0,-999.0,75,-99.99,,,0.00,0,weatherlink.com 1.10,2013-02-20 07:29:00,
2013-02-19 23:44:00,30.2,23.0,29.87,WSW,251,5.0,-999.0,75,-99.99,,,0.00,0,weatherlink.com 1.10,2013-02-20 07:44:00,
2013-02-19 23:59:00,30.0,23.0,29.88,WSW,243,3.0,-999.0,76,-99.99,,,0.00,0,weatherlink.com 1.10,2013-02-20 07:59:00,